Flag for Germany Weather past 2 weeks in Alsdorf, North Rhine-Westphalia, Germany

Now
45 °F

Scattered clouds.


Feels Like: 37 °F
Forecast: 35 / 45 °F
Wind: 16 mph from West

Location: Geilenkirchen Airport

Current Time: Mar 4, 2015 at 2:32:16 PM

Latest Report: Mar 4, 2015 at 1:50 PM


Visibility: N/A

Pressure: 30.30 "Hg

Humidity: 66%

Dew point: 34 °F

Location of AlsdorfLocation

Historic Weather in Alsdorf — Graph

°F

Alsdorf temperature yesterday

Maximum temperature yesterday: 48 °F (at 1:50 PM)
Minimum temperature yesterday: 37 °F (at 2:50 AM)
Average temperature yesterday: 41 °F

Past Weeks' High & Low Weather Summary

 TemperatureHumidityPressure
High50 °F (Feb 26, 12:50 PM)100% (Feb 17, 9:50 PM)30.77 "Hg (Feb 17, 9:50 PM)
Low28 °F (Feb 18, 4:50 AM)46% (Mar 2, 1:50 PM)29.39 "Hg (Feb 23, 4:50 AM)
Average41 °F82%30.01 "Hg
* Reported Feb 17 12:50 PM — Mar 4 12:50 PM, Alsdorf, Weather by CustomWeather, © 2015

Note: Actual official high and low records may vary slightly from our data, if they occured in-between our weather recording intervals... More about our weather records

Advertising

Alsdorf weather history for previous 24 hours

 ConditionsComfort  
Time TempWeatherWind HumidityBarometerVisibility
12:50 PM
Wed, Mar 4
45 °FPartly sunny.17 mph71%30.30 "HgN/A
11:50 AM43 °FScattered clouds.18 mph76%30.27 "HgN/A
10:50 AM41 °FScattered clouds.16 mph81%30.27 "HgN/A
9:50 AM39 °FPassing clouds.17 mph81%30.24 "HgN/A
8:50 AM39 °FScattered clouds.15 mph81%30.24 "HgN/A
7:50 AM37 °FPassing clouds.13 mph81%30.21 "HgN/A
6:50 AM36 °FClear.13 mph87%30.21 "Hg10 mi
5:50 AM36 °FClear.12 mph87%30.18 "Hg10 mi
4:50 AM37 °FClear.12 mph81%30.18 "Hg10 mi
3:50 AM37 °FClear.13 mph87%30.15 "Hg10 mi
2:50 AM37 °FClear.10 mph87%30.15 "Hg10 mi
1:50 AM37 °FClear.8 mph87%30.15 "Hg10 mi
12:50 AM39 °FSprinkles. Partly cloudy.12 mph75%30.12 "HgN/A
11:50 PM
Tue, Mar 3
39 °FClear.12 mph87%30.12 "Hg10 mi
10:50 PM37 °FPassing clouds.8 mph93%30.09 "HgN/A
9:50 PM37 °FSprinkles. Passing clouds.6 mph93%30.09 "HgN/A
8:50 PM39 °FPartly cloudy.13 mph87%30.07 "HgN/A
7:50 PM39 °FSprinkles. Partly cloudy.7 mph87%30.04 "HgN/A
6:50 PM41 °FPartly cloudy.8 mph87%30.01 "HgN/A
5:50 PM41 °FBroken clouds.8 mph93%30.01 "HgN/A
4:50 PM39 °FRain showers. Partly sunny.18 mph87%30.01 "Hg2 mi
3:50 PM45 °FSprinkles. Broken clouds.12 mph81%29.98 "Hg5 mi
2:50 PM45 °FSprinkles. Cloudy.17 mph76%29.98 "Hg6 mi
Weather by CustomWeather, © 2015

See weather overviewHow to use our weather pages